Location: DARK SKY Beskydy - Park tmavé oblohy, www.darkskybeskydy.cz
(49.4926°N, 18.5016°E)
Time: 09:18:37
(UTC+01:00)

Vanguard 2 Rocket - All Passes

Search period start: 25 February 2024 00:00
Search period end: 06 March 2024 00:00
Orbit: 554 x 3310 km, 32.9° (Epoch: 24 February)

Date Brightness Start Highest point End Pass type
(mag) Time Alt. Az. Time Alt. Az. Time Alt. Az.
25 Feb - 12:37:14 10° S 12:42:16 16° SE 12:48:46 10° ESE daylight
25 Feb - 14:45:13 10° SW 14:54:20 35° SSE 15:08:19 10° ESE daylight
25 Feb - 16:56:43 10° WSW 17:08:30 40° S 17:25:22 10° SE daylight
25 Feb - 19:10:37 10° WSW 19:23:34 30° SSW 19:39:14 10° SSE visible
25 Feb - 21:30:52 10° WSW 21:37:50 13° SW 21:45:02 10° SSW visible
26 Feb - 13:44:50 10° SSW 13:52:20 28° SSE 14:03:35 10° ESE daylight
26 Feb - 15:55:19 10° WSW 16:05:39 39° S 16:21:19 10° ESE daylight
26 Feb - 18:08:07 10° WSW 18:20:24 34° SSW 18:36:40 10° SE visible
26 Feb - 20:24:40 10° WSW 20:35:05 19° SW 20:46:37 10° S visible
27 Feb - 12:45:09 10° S 12:50:47 20° SE 12:58:36 10° ESE daylight
27 Feb - 14:54:20 10° SW 15:03:10 36° SSE 15:17:00 10° ESE daylight
27 Feb - 17:06:11 10° WSW 17:17:22 36° S 17:33:22 10° SE daylight
27 Feb - 19:20:45 10° WSW 19:32:10 24° SSW 19:45:50 10° SSE visible
28 Feb - 11:47:14 10° SSE 11:49:37 11° SE 11:52:20 10° ESE daylight
28 Feb - 13:53:44 10° SW 14:01:07 30° SSE 14:12:31 10° ESE daylight
28 Feb - 16:04:43 10° WSW 16:14:35 37° S 16:29:35 10° SE daylight
28 Feb - 18:17:57 10° WSW 18:29:10 28° SSW 18:43:50 10° SSE visible
28 Feb - 20:37:34 10° WSW 20:43:31 12° SW 20:49:52 10° SSW visible
29 Feb - 12:53:39 10° SSW 12:59:29 23° SSE 13:07:56 10° ESE daylight
29 Feb - 15:03:36 10° SW 15:12:07 35° S 15:25:29 10° ESE daylight
29 Feb - 17:15:51 10° WSW 17:26:16 31° SSW 17:40:58 10° SE daylight
29 Feb - 19:31:46 10° WSW 19:40:46 17° SW 19:51:15 10° S visible
01 Mar - 11:54:27 10° S 11:58:13 15° SE 12:02:59 10° ESE daylight
01 Mar - 14:02:52 10° SW 14:10:02 31° SSE 14:21:14 10° ESE daylight
01 Mar - 16:14:15 10° WSW 16:23:33 33° S 16:37:32 10° SE daylight
01 Mar - 18:28:16 10° WSW 18:37:57 22° SSW 18:50:13 10° SSE visible
02 Mar - 13:02:31 10° SSW 13:08:20 25° SSE 13:16:59 10° ESE daylight
02 Mar - 15:13:03 10° WSW 15:21:09 33° S 15:33:43 10° SE daylight
02 Mar - 17:25:50 10° WSW 17:35:11 25° SSW 17:48:00 10° SSE daylight
02 Mar - 19:45:44 10° SW 19:49:24 11° SW 19:53:19 10° SSW visible
03 Mar - 12:02:46 10° S 12:06:59 17° SSE 12:12:39 10° ESE daylight
03 Mar - 14:12:11 10° SW 14:19:04 30° S 14:29:45 10° ESE daylight
03 Mar - 16:24:02 10° WSW 16:32:35 28° SSW 16:45:03 10° SE daylight
03 Mar - 18:39:38 10° WSW 18:46:45 15° SSW 18:55:12 10° S visible
04 Mar - 11:05:12 10° SSE 11:05:54 10° SE 11:06:38 10° SE daylight
04 Mar - 13:11:40 10° SW 13:17:20 25° SSE 13:25:48 10° ESE daylight
04 Mar - 15:22:41 10° WSW 15:30:14 28° S 15:41:39 10° SE daylight
04 Mar - 17:36:22 10° WSW 17:44:07 19° SSW 17:54:09 10° SSE daylight
05 Mar - 12:11:34 10° SSW 12:15:54 19° SSE 12:21:53 10° ESE daylight
05 Mar - 14:21:42 10° SW 14:28:11 27° S 14:38:02 10° SE daylight
05 Mar - 16:34:10 10° WSW 16:41:39 22° SSW 16:51:57 10° SSE daylight
